Location: Easthampton
(42.2676°N, 72.6690°W)
Time: 15:56:18
(UTC+00:00)

Gurwin Techsat 1B - Pass Details

Date: 03 April 2023
Orbit: 811 x 813 km, 98.9° (Epoch: 02 June)

Event Time Altitude Azimuth Distance (km) Brightness Sun altitude
Rises 07:59:38 0° 12° (NNE) 3,347 12.5 -26.5°
Reaches altitude 10° 08:01:59 10° 11° (N) 2,412 11.6 -26.2°
Maximum altitude 08:07:18 76° 287° (WNW) 843 8.5 -25.4°
Enters shadow 08:07:40 72° 248° (WSW) 856 8.4 -25.3°
